Regional Weather Roundup
Issued by NWS

Home | Current Version | Previous Version | Graphics & Text | Print | Product List | Glossary On
Versions: 1 2 3 4 5 6 7 8 9 10 11 12 13 14 15 16 17 18 19 20 21 22 23 24 25 26 27 28 29 30 31 32 33 34 35 36 37 38 39 40 41 42 43 44 45 46 47 48 49 50
000
ASUS45 KBOU 092310
RWRCO

WEATHER ROUNDUP FOR COLORADO
NATIONAL WEATHER SERVICE DENVER/BOULDER CO
500 PM MDT WED JUL 09 2014

NOTE: "FAIR" INDICATES FEW OR NO CLOUDS BELOW 12000 FEET WITH NO
SIGNIFICANT WEATHER AND/OR OBSTRUCTIONS TO VISIBILITY.

COZ001>005-013-030-031-100000-
...NORTHWEST COLORADO...

CITY           SKY/WX    TMP DP  RH WIND       PRES   REMARKS
CRAIG          CLOUDY    81  38  21 N6        30.10F
HAYDEN         PTSUNNY   81  36  19 NE12G18   30.12F
MEEKER         CLOUDY    80  42  25 SW7       30.12F
MOUNT WERNER   PTSUNNY   68  32  26 W9        30.49F
STEAMBOAT SPGS PTSUNNY   78  41  26 W9G21     30.15S
WALDEN         PTSUNNY   64  45  48 E14G23    30.25S
$$

COZ006>008-011-100000-
...WEST CENTRAL VALLEYS...

CITY           SKY/WX    TMP DP  RH WIND       PRES   REMARKS
GRAND JUNCTION PTSUNNY   88  48  25 SW7       30.00F
MONTROSE       CLOUDY    88  46  23 NW9       30.09F
EAGLE          PTSUNNY   77  43  29 W9        30.17F
RIFLE          CLOUDY    87  45  23 NW10      30.04F
DELTA          CLOUDY    92  43  18 SW9       30.03F
NUCLA          CLOUDY    81  43  26 SE23G31   30.17R
$$

COZ017>023-064>068-100000-
...SOUTHWEST COLORADO...

CITY           SKY/WX    TMP DP  RH WIND       PRES   REMARKS
DURANGO        CLOUDY    75  46  35 N10       30.20R
CORTEZ         PTSUNNY   78  50  37 NE20G28   30.14S
PAGOSA SPRINGS CLOUDY    59  52  76 NW8       30.34F
TELLURIDE      LGT RAIN  59  48  67 E5        30.44F
WOLF CREEK PAS NOT AVBL
$$

COZ009-010-012-014-032>034-037-058>063-100000-
...CENTRAL COLORADO...

CITY           SKY/WX    TMP DP  RH WIND       PRES   REMARKS
ASPEN          CLOUDY    75  35  23 N9G21     30.25R
BUENA VISTA    CLOUDY    79  33  19 W20G33    30.26F
COPPER MTN     CLOUDY    61  23  23 W12G24    30.60F
BERTHOUD PASS  PTSUNNY   57  43  58 MISG      30.66S
COTTONWOOD PAS CLOUDY    70  32  24 W12G25    30.43F
GUNNISON       NOT AVBL
KREMMLING      PTSUNNY   73  36  25 S12       30.21S
LEADVILLE      CLOUDY    68  34  28 NW8       30.41S
MONARCH PASS   PTSUNNY   52  36  54 N17G26    30.72S
SALIDA         CLOUDY   N/A N/A N/A CALM      30.28F
SUNLIGHT       PTSUNNY   68  37  32 CALM      30.53F
WILKERSON PASS CLOUDY    63  32  31 S6        30.57S
$$

COZ069>075-100000-
...SAN LUIS VALLEY/SANGRE DE CRISTO MOUNTAINS...

CITY           SKY/WX    TMP DP  RH WIND       PRES   REMARKS
ALAMOSA        PTSUNNY   79  43  27 E17G23    30.23S
LA VETA PASS   CLOUDY    54  41  62 SE10      30.46F
SAGUACHE       NOT AVBL
$$

COZ035-036-038>040-100000-
...NORTHERN COLORADO FRONT RANGE...

CITY           SKY/WX    TMP DP  RH WIND       PRES   REMARKS
DENVER INTL AP CLOUDY    84  42  22 N20G32    30.05R
DMNS CITY PARK   N/A     83  40  21 N9G15     30.01F
AURORA         PTSUNNY   84  44  24 N26G37    30.06R
FRONT RANGE AP NOT AVBL
ERIE MUNI ARPT PTSUNNY   80  54  40 W10       30.02F
BOULDER MUN AP LGT RAIN  73  59  60 S6        30.03F
CENTENNIAL     PTSUNNY   88  42  20 N28G35    30.05S
BROOMFIELD     PTSUNNY   81  57  44 N9        30.07S
FORT COLLINS   CLOUDY    82  59  44 W7        30.00F
LONGMONT       CLOUDY    79  57  46 SW7       30.02S
$$

COZ041-046-047-076>085-087-088-100000-
...PIKES PEAK/PALMER DIVIDE AND SOUTHERN FOOTHILLS...

CITY           SKY/WX    TMP DP  RH WIND       PRES   REMARKS
COLO. SPRINGS  PTSUNNY   83  39  21 S8        30.12F
A. F. ACADEMY  MOSUNNY   83  38  19 SE15      30.13F
ELLICOTT       NOT AVBL
FALCON         PTSUNNY   85  32  14 S14G20    30.20R
FORT CARSON    PTSUNNY   86  39  19 VRB5      30.09F HAZE
LIMON          PTSUNNY   87  42  20 S18       30.04F
MONUMENT HILL  CLOUDY    77  39  25 SE18G25   30.18R
TRINIDAD       PTSUNNY   85  45  24 SW24G31   30.08F
$$

COZ042>045-048>051-090-091-100000-
...NORTHEAST COLORADO...

CITY           SKY/WX    TMP DP  RH WIND       PRES   REMARKS
GREELEY ARPT   PTSUNNY   84  63  48 NW9       29.99S
AKRON          PTSUNNY   89  49  25 S20G26    29.98F
BURLINGTON     SUNNY     89  54  30 S15       29.98F
WRAY           SUNNY     94  54  26 SE18G24   29.94F
STERLING       PTSUNNY   91  61  35 CALM      29.93S
HOLYOKE        SUNNY     91  59  33 S12G21    29.94F
FORT MORGAN    PTSUNNY   92  48  22 S7        29.96F
$$

COZ086-089-092>099-100000-
...SOUTHEAST COLORADO...

CITY           SKY/WX    TMP DP  RH WIND       PRES   REMARKS
PUEBLO         PTSUNNY   93  39  15 SE7       29.97F
LA JUNTA       PTSUNNY   97  48  18 MISG      29.93F
LAMAR          MOSUNNY   99  50  19 S14G24    29.92F
SPRINGFIELD      N/A     92  50  23 S25G32    30.00F
$$


USA.gov is the U.S. government's official web portal to all federal, state and local government web resources and services.